User: anonymous   Login
Location: Unspecified
(0.0000°N, 0.0000°E)
Time: 11:23:23
(UTC+00:00)
Language:

CUBESAT XI-V - Orbit

View from above orbital plane
View from above orbital plane
View from above satellite
View from above satellite

Ground track
Ground track

The orbit data is extracted from the following two-line orbital elements,

1 28895U 05043F   21263.84201329  .00000171  00000-0  41669-4 0  9996
2 28895  98.0720  35.0663 0015393 269.8200  90.1239 14.63960279847966
Epoch (UTC): 20 September 2021 20:12:29
Eccentricity: 0.0015393
inclination: 98.0720°
perigee height: 669 km
apogee height: 691 km
right ascension of ascending node: 35.0663°
argument of perigee: 269.8200°
revolutions per day: 14.63960279
mean anomaly at epoch: 90.1239°
orbit number at epoch: 84796

The dashed part of the orbit path shows where the satellite is in the earth's shadow,  

DLR